Time,TemperatureF,DewpointF,PressureIn,WindDirection,WindDirectionDegrees,WindSpeedMPH,WindSpeedGustMPH,Humidity,HourlyPrecipIn,Conditions,Clouds,dailyrainin,SolarRadiationWatts/m^2,SoftwareType,DateUTC
2013-02-21 00:05:00,43.0,40.3,30.09,SE,144,3.0,6.0,90,0.00,,,0.00,0,Wunderground v.1.15,2013-02-21 08:05:00,
2013-02-21 00:10:00,42.9,40.5,30.09,SE,144,2.0,4.0,91,0.00,,,0.00,0,Wunderground v.1.15,2013-02-21 08:10:00,
2013-02-21 00:16:00,42.7,40.3,30.09,SE,144,1.0,4.0,91,0.00,,,0.00,0,Wunderground v.1.15,2013-02-21 08:16:00,
2013-02-21 00:21:00,42.7,40.3,30.09,SE,144,1.0,1.0,91,0.00,,,0.00,0,Wunderground v.1.15,2013-02-21 08:21:00,
2013-02-21 00:27:00,42.6,40.2,30.09,SE,144,0.0,4.0,91,0.00,,,0.00,0,Wunderground v.1.15,2013-02-21 08:27:00,
2013-02-21 00:32:00,42.6,40.2,30.09,SE,144,1.0,1.0,91,0.00,,,0.00,0,Wunderground v.1.15,2013-02-21 08:32:00,
2013-02-21 00:38:00,42.5,40.3,30.09,SE,144,1.0,1.0,92,0.00,,,0.00,0,Wunderground v.1.15,2013-02-21 08:38:00,
2013-02-21 00:44:00,42.4,40.2,30.09,SE,133,0.0,0.0,92,0.00,,,0.00,0,Wunderground v.1.15,2013-02-21 08:44:00,
2013-02-21 00:50:00,42.4,40.2,30.09,SE,138,0.0,0.0,92,0.00,,,0.00,0,Wunderground v.1.15,2013-02-21 08:50:00,
2013-02-21 00:56:00,42.3,40.1,30.09,SE,134,0.0,0.0,92,0.00,,,0.00,0,Wunderground v.1.15,2013-02-21 08:56:00,
2013-02-21 01:01:00,42.3,40.1,30.09,SE,132,0.0,0.0,92,0.00,,,0.00,0,Wunderground v.1.15,2013-02-21 09:01:00,
2013-02-21 01:06:00,42.2,40.0,30.09,SE,132,1.0,5.0,92,0.00,,,0.00,0,Wunderground v.1.15,2013-02-21 09:06:00,
2013-02-21 01:12:00,42.2,40.3,30.09,SE,132,4.0,5.0,93,0.00,,,0.00,0,Wunderground v.1.15,2013-02-21 09:12:00,
2013-02-21 01:17:00,42.2,40.3,30.09,SE,132,5.0,5.0,93,0.00,,,0.00,0,Wunderground v.1.15,2013-02-21 09:17:00,
2013-02-21 01:23:00,42.2,40.3,30.09,SE,132,4.0,4.0,93,0.00,,,0.00,0,Wunderground v.1.15,2013-02-21 09:23:00,
2013-02-21 01:29:00,42.2,40.3,30.09,SE,132,4.0,5.0,93,0.00,,,0.00,0,Wunderground v.1.15,2013-02-21 09:29:00,
2013-02-21 01:35:00,42.2,40.3,30.09,SE,132,3.0,3.0,93,0.00,,,0.00,0,Wunderground v.1.15,2013-02-21 09:35:00,
2013-02-21 01:41:00,42.2,40.3,30.09,SE,132,1.0,4.0,93,0.00,,,0.00,0,Wunderground v.1.15,2013-02-21 09:41:00,
2013-02-21 01:47:00,42.2,40.3,30.09,SE,132,1.0,4.0,93,0.00,,,0.00,0,Wunderground v.1.15,2013-02-21 09:47:00,
2013-02-21 01:52:00,42.2,40.3,30.09,SE,132,0.0,1.0,93,0.00,,,0.00,0,Wunderground v.1.15,2013-02-21 09:52:00,
2013-02-21 01:58:00,42.2,40.3,30.09,SE,132,0.0,1.0,93,0.00,,,0.00,0,Wunderground v.1.15,2013-02-21 09:58:00,
2013-02-21 02:03:00,42.3,40.4,30.09,SE,132,1.0,5.0,93,0.00,,,0.00,0,Wunderground v.1.15,2013-02-21 10:03:00,
2013-02-21 02:09:00,42.3,40.4,30.09,SE,132,3.0,5.0,93,0.00,,,0.00,0,Wunderground v.1.15,2013-02-21 10:09:00,
2013-02-21 02:14:00,42.2,40.0,30.09,SE,132,3.0,4.0,92,0.00,,,0.00,0,Wunderground v.1.15,2013-02-21 10:14:00,
2013-02-21 02:19:00,42.2,40.0,30.09,SE,132,3.0,4.0,92,0.00,,,0.00,0,Wunderground v.1.15,2013-02-21 10:19:00,
2013-02-21 02:25:00,42.1,39.9,30.08,SE,132,2.0,3.0,92,0.00,,,0.00,0,Wunderground v.1.15,2013-02-21 10:25:00,
2013-02-21 02:30:00,42.0,39.8,30.08,SSE,150,1.0,4.0,92,0.00,,,0.00,0,Wunderground v.1.15,2013-02-21 10:30:00,
2013-02-21 02:36:00,41.9,39.7,30.08,SSE,150,2.0,2.0,92,0.00,,,0.00,0,Wunderground v.1.15,2013-02-21 10:36:00,
2013-02-21 02:41:00,41.9,39.7,30.08,SSE,150,0.0,0.0,92,0.00,,,0.00,0,Wunderground v.1.15,2013-02-21 10:41:00,
2013-02-21 02:46:00,41.9,39.7,30.07,SSE,150,0.0,0.0,92,0.00,,,0.00,0,Wunderground v.1.15,2013-02-21 10:46:00,
2013-02-21 02:52:00,41.9,39.7,30.07,SE,145,0.0,5.0,92,0.00,,,0.00,0,Wunderground v.1.15,2013-02-21 10:52:00,
2013-02-21 02:58:00,41.9,39.7,30.07,SE,144,2.0,5.0,92,0.00,,,0.00,0,Wunderground v.1.15,2013-02-21 10:58:00,
2013-02-21 03:03:00,41.8,39.6,30.07,SE,144,1.0,2.0,92,0.00,,,0.00,0,Wunderground v.1.15,2013-02-21 11:03:00,
2013-02-21 03:09:00,41.7,39.5,30.07,SE,144,0.0,2.0,92,0.00,,,0.00,0,Wunderground v.1.15,2013-02-21 11:09:00,
2013-02-21 03:14:00,41.6,39.4,30.08,SE,144,0.0,0.0,92,0.00,,,0.00,0,Wunderground v.1.15,2013-02-21 11:14:00,
2013-02-21 03:20:00,41.5,39.3,30.08,SE,142,1.0,6.0,92,0.00,,,0.00,0,Wunderground v.1.15,2013-02-21 11:20:00,
2013-02-21 03:26:00,41.5,39.3,30.08,SE,137,4.0,6.0,92,0.00,,,0.00,0,Wunderground v.1.15,2013-02-21 11:26:00,
2013-02-21 03:32:00,41.5,39.3,30.08,ESE,121,5.0,5.0,92,0.00,,,0.00,0,Wunderground v.1.15,2013-02-21 11:32:00,
2013-02-21 03:38:00,41.4,39.3,30.07,SE,125,4.0,6.0,92,0.00,,,0.00,0,Wunderground v.1.15,2013-02-21 11:38:00,
2013-02-21 03:43:00,41.4,39.0,30.07,SE,125,2.0,3.0,91,0.00,,,0.00,0,Wunderground v.1.15,2013-02-21 11:43:00,
2013-02-21 03:49:00,41.3,38.9,30.07,SE,125,0.0,3.0,91,0.00,,,0.00,0,Wunderground v.1.15,2013-02-21 11:49:00,
2013-02-21 03:54:00,41.4,39.0,30.07,SE,125,0.0,0.0,91,0.00,,,0.00,0,Wunderground v.1.15,2013-02-21 11:54:00,
2013-02-21 04:01:00,41.4,39.0,30.07,SE,125,0.0,0.0,91,0.00,,,0.00,0,Wunderground v.1.15,2013-02-21 12:01:00,
2013-02-21 04:06:00,41.4,38.7,30.07,SE,125,0.0,0.0,90,0.00,,,0.00,0,Wunderground v.1.15,2013-02-21 12:06:00,
2013-02-21 04:11:00,41.5,38.8,30.07,SE,125,0.0,0.0,90,0.00,,,0.00,0,Wunderground v.1.15,2013-02-21 12:11:00,
2013-02-21 04:16:00,41.5,38.8,30.07,SE,125,0.0,0.0,90,0.00,,,0.00,0,Wunderground v.1.15,2013-02-21 12:16:00,
2013-02-21 04:22:00,41.5,38.8,30.08,ESE,105,0.0,0.0,90,0.00,,,0.00,0,Wunderground v.1.15,2013-02-21 12:22:00,
2013-02-21 04:28:00,41.4,38.1,30.08,ESE,105,0.0,0.0,88,0.00,,,0.00,0,Wunderground v.1.15,2013-02-21 12:28:00,
2013-02-21 04:33:00,41.5,37.9,30.08,SE,144,0.0,0.0,87,0.00,,,0.00,0,Wunderground v.1.15,2013-02-21 12:33:00,
2013-02-21 04:39:00,41.4,37.5,30.08,WNW,302,1.0,7.0,86,0.00,,,0.00,0,Wunderground v.1.15,2013-02-21 12:39:00,
2013-02-21 04:44:00,41.5,37.3,30.08,NW,310,1.0,1.0,85,0.00,,,0.00,0,Wunderground v.1.15,2013-02-21 12:44:00,
2013-02-21 04:49:00,41.5,37.3,30.08,NW,315,0.0,1.0,85,0.00,,,0.00,0,Wunderground v.1.15,2013-02-21 12:49:00,
2013-02-21 04:55:00,41.4,37.2,30.08,NW,322,0.0,0.0,85,0.00,,,0.00,0,Wunderground v.1.15,2013-02-21 12:55:00,
2013-02-21 05:00:00,41.4,37.2,30.08,North,11,0.0,0.0,85,0.00,,,0.00,0,Wunderground v.1.15,2013-02-21 13:00:00,
2013-02-21 05:06:00,41.4,37.2,30.09,NNE,22,1.0,3.0,85,0.00,,,0.00,0,Wunderground v.1.15,2013-02-21 13:06:00,
2013-02-21 05:11:00,41.3,37.1,30.10,NNE,25,1.0,1.0,85,0.00,,,0.00,0,Wunderground v.1.15,2013-02-21 13:11:00,
2013-02-21 05:17:00,41.3,37.4,30.10,NNE,26,3.0,6.0,86,0.00,,,0.00,0,Wunderground v.1.15,2013-02-21 13:17:00,
2013-02-21 05:22:00,41.2,37.3,30.09,NNE,26,5.0,5.0,86,0.00,,,0.00,0,Wunderground v.1.15,2013-02-21 13:22:00,
2013-02-21 05:28:00,41.0,37.1,30.10,WNW,297,5.0,6.0,86,0.00,,,0.00,0,Wunderground v.1.15,2013-02-21 13:28:00,
2013-02-21 05:33:00,40.9,36.7,30.10,West,271,5.0,7.0,85,0.00,,,0.00,0,Wunderground v.1.15,2013-02-21 13:33:00,
2013-02-21 05:39:00,40.7,36.2,30.10,NNW,343,6.0,9.0,84,0.00,,,0.00,0,Wunderground v.1.15,2013-02-21 13:39:00,
2013-02-21 05:44:00,40.6,35.8,30.09,NW,317,7.0,11.0,83,0.00,,,0.00,0,Wunderground v.1.15,2013-02-21 13:44:00,
2013-02-21 05:51:00,40.4,35.3,30.10,North,360,7.0,7.0,82,0.00,,,0.00,0,Wunderground v.1.15,2013-02-21 13:51:00,
2013-02-21 05:56:00,40.3,34.9,30.09,NW,325,7.0,9.0,81,0.00,,,0.00,0,Wunderground v.1.15,2013-02-21 13:56:00,
2013-02-21 06:01:00,40.3,34.6,30.09,NW,324,6.0,6.0,80,0.00,,,0.00,0,Wunderground v.1.15,2013-02-21 14:01:00,
2013-02-21 06:06:00,40.2,34.5,30.09,NW,324,4.0,6.0,80,0.00,,,0.00,0,Wunderground v.1.15,2013-02-21 14:06:00,
2013-02-21 06:11:00,40.2,34.5,30.10,NNW,340,5.0,6.0,80,0.00,,,0.00,0,Wunderground v.1.15,2013-02-21 14:11:00,
2013-02-21 06:16:00,40.1,34.4,30.10,NNW,340,5.0,6.0,80,0.00,,,0.00,0,Wunderground v.1.15,2013-02-21 14:16:00,
2013-02-21 06:22:00,40.1,34.4,30.10,NNW,340,5.0,5.0,80,0.00,,,0.00,0,Wunderground v.1.15,2013-02-21 14:22:00,
2013-02-21 06:27:00,40.0,34.3,30.10,NNW,340,5.0,5.0,80,0.00,,,0.00,0,Wunderground v.1.15,2013-02-21 14:27:00,
2013-02-21 06:33:00,40.0,34.3,30.10,NNW,340,4.0,4.0,80,0.00,,,0.00,0,Wunderground v.1.15,2013-02-21 14:33:00,
2013-02-21 06:39:00,39.9,33.9,30.10,NNW,340,3.0,4.0,79,0.00,,,0.00,0,Wunderground v.1.15,2013-02-21 14:39:00,
2013-02-21 06:44:00,39.8,34.1,30.10,NNW,340,1.0,2.0,80,0.00,,,0.00,0,Wunderground v.1.15,2013-02-21 14:44:00,
2013-02-21 06:50:00,39.7,34.0,30.10,NNW,340,0.0,2.0,80,0.00,,,0.00,5,Wunderground v.1.15,2013-02-21 14:50:00,
2013-02-21 06:56:00,39.6,33.9,30.10,NNW,340,0.0,0.0,80,0.00,,,0.00,9,Wunderground v.1.15,2013-02-21 14:56:00,
2013-02-21 07:02:00,39.4,33.7,30.11,NNW,340,0.0,0.0,80,0.00,,,0.00,11,Wunderground v.1.15,2013-02-21 15:02:00,
2013-02-21 07:07:00,39.3,34.0,30.11,NNW,339,0.0,0.0,81,0.00,,,0.00,14,Wunderground v.1.15,2013-02-21 15:07:00,
2013-02-21 07:13:00,39.2,33.9,30.11,NNW,340,0.0,0.0,81,0.00,,,0.00,18,Wunderground v.1.15,2013-02-21 15:13:00,
2013-02-21 07:19:00,39.2,33.9,30.11,NNW,339,0.0,0.0,81,0.00,,,0.00,19,Wunderground v.1.15,2013-02-21 15:19:00,
2013-02-21 07:24:00,39.4,34.1,30.11,NNW,339,0.0,0.0,81,0.00,,,0.00,21,Wunderground v.1.15,2013-02-21 15:24:00,
2013-02-21 07:30:00,39.7,34.3,30.11,NNW,339,0.0,0.0,81,0.00,,,0.00,26,Wunderground v.1.15,2013-02-21 15:30:00,
2013-02-21 07:36:00,40.1,34.4,30.11,NNW,339,0.0,0.0,80,0.00,,,0.00,33,Wunderground v.1.15,2013-02-21 15:36:00,
2013-02-21 07:41:00,40.5,34.5,30.12,NNW,340,0.0,0.0,79,0.00,,,0.00,40,Wunderground v.1.15,2013-02-21 15:41:00,
2013-02-21 07:47:00,41.0,34.0,30.12,NNW,345,0.0,0.0,76,0.00,,,0.00,51,Wunderground v.1.15,2013-02-21 15:47:00,
2013-02-21 07:52:00,41.4,34.1,30.12,NNW,346,0.0,0.0,75,0.00,,,0.00,63,Wunderground v.1.15,2013-02-21 15:52:00,
2013-02-21 07:58:00,41.8,34.1,30.13,NW,323,0.0,0.0,74,0.00,,,0.00,79,Wunderground v.1.15,2013-02-21 15:58:00,
2013-02-21 08:03:00,42.2,34.5,30.13,NW,321,0.0,0.0,74,0.00,,,0.00,100,Wunderground v.1.15,2013-02-21 16:03:00,
2013-02-21 08:09:00,42.5,34.8,30.13,NW,321,0.0,0.0,74,0.00,,,0.00,132,Wunderground v.1.15,2013-02-21 16:09:00,
2013-02-21 08:15:00,42.9,34.1,30.13,NW,321,0.0,0.0,71,0.00,,,0.00,162,Wunderground v.1.15,2013-02-21 16:15:00,
2013-02-21 08:20:00,43.2,34.4,30.13,NW,321,0.0,0.0,71,0.00,,,0.00,195,Wunderground v.1.15,2013-02-21 16:20:00,
2013-02-21 08:26:00,43.3,34.9,30.14,NW,321,0.0,0.0,72,0.00,,,0.00,218,Wunderground v.1.15,2013-02-21 16:26:00,
2013-02-21 08:31:00,43.4,35.0,30.14,NW,321,0.0,0.0,72,0.00,,,0.00,236,Wunderground v.1.15,2013-02-21 16:31:00,
2013-02-21 08:37:00,43.4,34.6,30.14,NW,321,0.0,0.0,71,0.00,,,0.00,258,Wunderground v.1.15,2013-02-21 16:37:00,
2013-02-21 08:43:00,43.4,35.0,30.15,WNW,296,0.0,4.0,72,0.00,,,0.00,279,Wunderground v.1.15,2013-02-21 16:43:00,
2013-02-21 08:49:00,43.3,35.2,30.15,WNW,296,1.0,4.0,73,0.00,,,0.00,297,Wunderground v.1.15,2013-02-21 16:49:00,
2013-02-21 08:54:00,43.1,35.0,30.16,WNW,296,2.0,4.0,73,0.00,,,0.00,313,Wunderground v.1.15,2013-02-21 16:54:00,
2013-02-21 09:00:00,42.8,34.7,30.16,WNW,296,4.0,4.0,73,0.00,,,0.00,308,Wunderground v.1.15,2013-02-21 17:00:00,
2013-02-21 09:06:00,42.7,35.0,30.16,WNW,295,3.0,5.0,74,0.00,,,0.00,297,Wunderground v.1.15,2013-02-21 17:06:00,
2013-02-21 09:11:00,42.7,35.3,30.16,ENE,60,1.0,2.0,75,0.00,,,0.00,285,Wunderground v.1.15,2013-02-21 17:11:00,
2013-02-21 09:17:00,42.9,35.2,30.15,NNW,333,2.0,4.0,74,0.00,,,0.00,288,Wunderground v.1.15,2013-02-21 17:17:00,
2013-02-21 09:22:00,43.1,35.0,30.15,WNW,296,4.0,6.0,73,0.00,,,0.00,318,Wunderground v.1.15,2013-02-21 17:22:00,
2013-02-21 09:28:00,43.4,35.0,30.16,WNW,300,5.0,6.0,72,0.00,,,0.00,376,Wunderground v.1.15,2013-02-21 17:28:00,
2013-02-21 09:33:00,43.5,34.7,30.16,WNW,300,3.0,4.0,71,0.00,,,0.00,418,Wunderground v.1.15,2013-02-21 17:33:00,
2013-02-21 09:38:00,43.8,35.4,30.16,WNW,300,1.0,4.0,72,0.00,,,0.00,434,Wunderground v.1.15,2013-02-21 17:38:00,
2013-02-21 09:43:00,44.2,35.4,30.17,WNW,298,0.0,6.0,71,0.00,,,0.00,445,Wunderground v.1.15,2013-02-21 17:43:00,
2013-02-21 09:49:00,44.6,35.8,30.17,West,262,1.0,6.0,71,0.00,,,0.00,466,Wunderground v.1.15,2013-02-21 17:49:00,
2013-02-21 09:54:00,44.9,36.1,30.17,WNW,299,2.0,4.0,71,0.00,,,0.00,482,Wunderground v.1.15,2013-02-21 17:54:00,
2013-02-21 10:00:00,45.1,35.9,30.17,WNW,293,1.0,1.0,70,0.00,,,0.00,497,Wunderground v.1.15,2013-02-21 18:00:00,
2013-02-21 10:06:00,45.4,36.2,30.17,WNW,286,2.0,4.0,70,0.00,,,0.00,508,Wunderground v.1.15,2013-02-21 18:06:00,
2013-02-21 10:12:00,45.7,36.1,30.17,WNW,287,2.0,2.0,69,0.00,,,0.00,526,Wunderground v.1.15,2013-02-21 18:12:00,
2013-02-21 10:18:00,46.2,36.2,30.17,NW,307,3.0,6.0,68,0.00,,,0.00,541,Wunderground v.1.15,2013-02-21 18:18:00,
2013-02-21 10:23:00,46.5,36.1,30.17,NNW,327,5.0,9.0,67,0.00,,,0.00,550,Wunderground v.1.15,2013-02-21 18:23:00,
2013-02-21 10:28:00,46.9,35.7,30.17,WNW,290,6.0,12.0,65,0.00,,,0.00,557,Wunderground v.1.15,2013-02-21 18:28:00,
2013-02-21 10:33:00,47.0,35.4,30.18,NNW,346,6.0,8.0,64,0.00,,,0.00,566,Wunderground v.1.15,2013-02-21 18:33:00,
2013-02-21 10:39:00,47.2,35.2,30.18,WNW,293,8.0,16.0,63,0.00,,,0.00,554,Wunderground v.1.15,2013-02-21 18:39:00,
2013-02-21 10:44:00,47.1,34.7,30.18,NNW,346,10.0,12.0,62,0.00,,,0.00,552,Wunderground v.1.15,2013-02-21 18:44:00,
2013-02-21 10:49:00,47.2,34.4,30.18,WNW,290,9.0,12.0,61,0.00,,,0.00,522,Wunderground v.1.15,2013-02-21 18:49:00,
2013-02-21 10:54:00,47.6,34.4,30.18,NNW,336,8.0,9.0,60,0.00,,,0.00,508,Wunderground v.1.15,2013-02-21 18:54:00,
2013-02-21 11:00:00,48.1,34.4,30.18,North,350,8.0,8.0,59,0.00,,,0.00,485,Wunderground v.1.15,2013-02-21 19:00:00,
2013-02-21 11:06:00,48.4,34.3,30.18,NNE,22,9.0,13.0,58,0.00,,,0.00,473,Wunderground v.1.15,2013-02-21 19:06:00,
2013-02-21 11:11:00,48.6,34.0,30.18,North,355,8.0,11.0,57,0.00,,,0.00,473,Wunderground v.1.15,2013-02-21 19:11:00,
2013-02-21 11:16:00,48.8,34.2,30.18,NNW,330,9.0,11.0,57,0.00,,,0.00,485,Wunderground v.1.15,2013-02-21 19:16:00,
2013-02-21 11:22:00,49.0,34.4,30.18,NW,323,8.0,9.0,57,0.00,,,0.00,519,Wunderground v.1.15,2013-02-21 19:22:00,
2013-02-21 11:28:00,49.2,34.2,30.18,North,355,9.0,18.0,56,0.00,,,0.00,577,Wunderground v.1.15,2013-02-21 19:28:00,
2013-02-21 11:33:00,49.1,33.6,30.17,NW,325,12.0,15.0,55,0.00,,,0.00,640,Wunderground v.1.15,2013-02-21 19:33:00,
2013-02-21 11:39:00,49.2,33.7,30.17,NW,315,12.0,18.0,55,0.00,,,0.00,624,Wunderground v.1.15,2013-02-21 19:39:00,
2013-02-21 11:44:00,49.4,34.3,30.17,NNW,328,10.0,12.0,56,0.00,,,0.00,671,Wunderground v.1.15,2013-02-21 19:44:00,
2013-02-21 11:50:00,49.7,33.7,30.17,WNW,288,10.0,12.0,54,0.00,,,0.00,673,Wunderground v.1.15,2013-02-21 19:50:00,
2013-02-21 11:56:00,49.9,33.9,30.17,WNW,293,11.0,21.0,54,0.00,,,0.00,677,Wunderground v.1.15,2013-02-21 19:56:00,
2013-02-21 12:01:00,50.3,34.3,30.17,NNW,342,12.0,12.0,54,0.00,,,0.00,682,Wunderground v.1.15,2013-02-21 20:01:00,
2013-02-21 12:06:00,50.4,32.9,30.17,NW,315,12.0,15.0,51,0.00,,,0.00,684,Wunderground v.1.15,2013-02-21 20:06:00,
2013-02-21 12:11:00,50.6,33.1,30.17,NNW,344,11.0,11.0,51,0.00,,,0.00,684,Wunderground v.1.15,2013-02-21 20:11:00,
2013-02-21 12:17:00,51.0,33.0,30.17,North,350,11.0,17.0,50,0.00,,,0.00,638,Wunderground v.1.15,2013-02-21 20:17:00,
2013-02-21 12:22:00,51.1,32.6,30.17,NW,311,11.0,12.0,49,0.00,,,0.00,587,Wunderground v.1.15,2013-02-21 20:22:00,
2013-02-21 12:28:00,51.6,34.0,30.17,NW,304,7.0,12.0,51,0.00,,,0.00,543,Wunderground v.1.15,2013-02-21 20:28:00,
2013-02-21 12:33:00,51.6,33.0,30.16,WNW,297,8.0,12.0,49,0.00,,,0.00,513,Wunderground v.1.15,2013-02-21 20:33:00,
2013-02-21 12:39:00,51.4,33.4,30.16,NW,317,8.0,12.0,50,0.00,,,0.00,519,Wunderground v.1.15,2013-02-21 20:39:00,
2013-02-21 12:44:00,51.7,32.1,30.16,NW,311,7.0,9.0,47,0.00,,,0.00,540,Wunderground v.1.15,2013-02-21 20:44:00,
2013-02-21 12:50:00,51.8,32.2,30.16,ENE,57,7.0,9.0,47,0.00,,,0.00,571,Wunderground v.1.15,2013-02-21 20:50:00,
2013-02-21 12:56:00,52.1,31.9,30.16,NNE,17,7.0,10.0,46,0.00,,,0.00,619,Wunderground v.1.15,2013-02-21 20:56:00,
2013-02-21 13:01:00,52.5,32.3,30.16,NNW,346,6.0,6.0,46,0.00,,,0.00,638,Wunderground v.1.15,2013-02-21 21:01:00,
2013-02-21 13:06:00,52.6,31.8,30.15,NW,317,6.0,10.0,45,0.00,,,0.00,679,Wunderground v.1.15,2013-02-21 21:06:00,
2013-02-21 13:12:00,52.7,31.4,30.15,North,355,8.0,10.0,44,0.00,,,0.00,682,Wunderground v.1.15,2013-02-21 21:12:00,
2013-02-21 13:17:00,53.0,31.6,30.15,NNW,333,8.0,11.0,44,0.00,,,0.00,677,Wunderground v.1.15,2013-02-21 21:17:00,
2013-02-21 13:22:00,53.1,31.2,30.15,NE,37,7.0,10.0,43,0.00,,,0.00,635,Wunderground v.1.15,2013-02-21 21:22:00,
2013-02-21 13:28:00,53.1,31.2,30.15,North,9,7.0,12.0,43,0.00,,,0.00,557,Wunderground v.1.15,2013-02-21 21:28:00,
2013-02-21 13:33:00,53.2,31.8,30.15,North,351,7.0,7.0,44,0.00,,,0.00,503,Wunderground v.1.15,2013-02-21 21:33:00,
2013-02-21 13:39:00,53.5,31.5,30.14,North,355,5.0,7.0,43,0.00,,,0.00,508,Wunderground v.1.15,2013-02-21 21:39:00,
2013-02-21 13:44:00,53.7,31.7,30.15,NW,319,5.0,7.0,43,0.00,,,0.00,610,Wunderground v.1.15,2013-02-21 21:44:00,
2013-02-21 13:50:00,53.8,31.2,30.14,NNW,328,6.0,14.0,42,0.00,,,0.00,649,Wunderground v.1.15,2013-02-21 21:50:00,
2013-02-21 13:56:00,53.9,30.7,30.14,NNE,32,7.0,14.0,41,0.00,,,0.00,640,Wunderground v.1.15,2013-02-21 21:56:00,
2013-02-21 14:01:00,54.1,30.3,30.15,NW,326,7.0,7.0,40,0.00,,,0.00,633,Wunderground v.1.15,2013-02-21 22:01:00,
2013-02-21 14:06:00,54.1,30.3,30.14,WNW,301,8.0,12.0,40,0.00,,,0.00,624,Wunderground v.1.15,2013-02-21 22:06:00,
2013-02-21 14:11:00,54.1,30.3,30.14,NNW,329,10.0,10.0,40,0.00,,,0.00,617,Wunderground v.1.15,2013-02-21 22:11:00,
2013-02-21 14:17:00,54.3,31.1,30.14,NNW,335,7.0,10.0,41,0.00,,,0.00,606,Wunderground v.1.15,2013-02-21 22:17:00,
2013-02-21 14:23:00,54.4,31.8,30.14,NNW,337,7.0,7.0,42,0.00,,,0.00,596,Wunderground v.1.15,2013-02-21 22:23:00,
2013-02-21 14:29:00,54.8,30.9,30.14,North,5,6.0,7.0,40,0.00,,,0.00,584,Wunderground v.1.15,2013-02-21 22:29:00,
2013-02-21 14:35:00,55.0,32.9,30.14,NW,315,7.0,13.0,43,0.00,,,0.00,571,Wunderground v.1.15,2013-02-21 22:35:00,
2013-02-21 14:40:00,54.8,32.7,30.14,West,279,9.0,13.0,43,0.00,,,0.00,561,Wunderground v.1.15,2013-02-21 22:40:00,
2013-02-21 14:46:00,54.6,32.5,30.14,NW,313,10.0,14.0,43,0.00,,,0.00,547,Wunderground v.1.15,2013-02-21 22:46:00,
2013-02-21 14:51:00,54.2,35.4,30.14,WNW,283,10.0,10.0,49,0.00,,,0.00,534,Wunderground v.1.15,2013-02-21 22:51:00,
2013-02-21 14:57:00,54.1,34.3,30.13,WNW,294,7.0,11.0,47,0.00,,,0.00,522,Wunderground v.1.15,2013-02-21 22:57:00,
2013-02-21 15:02:00,53.9,35.7,30.14,West,264,9.0,9.0,50,0.00,,,0.00,508,Wunderground v.1.15,2013-02-21 23:02:00,
2013-02-21 15:07:00,53.8,36.1,30.14,West,274,8.0,9.0,51,0.00,,,0.00,496,Wunderground v.1.15,2013-02-21 23:07:00,
2013-02-21 15:13:00,53.7,35.5,30.14,WSW,253,7.0,7.0,50,0.00,,,0.00,483,Wunderground v.1.15,2013-02-21 23:13:00,
2013-02-21 15:18:00,53.8,37.5,30.14,West,275,7.0,8.0,54,0.00,,,0.00,464,Wunderground v.1.15,2013-02-21 23:18:00,
2013-02-21 15:23:00,53.6,35.9,30.14,WNW,285,7.0,13.0,51,0.00,,,0.00,459,Wunderground v.1.15,2013-02-21 23:23:00,
2013-02-21 15:29:00,53.0,35.3,30.14,WNW,290,10.0,14.0,51,0.00,,,0.00,441,Wunderground v.1.15,2013-02-21 23:29:00,
2013-02-21 15:34:00,53.0,35.8,30.14,West,265,9.0,11.0,52,0.00,,,0.00,429,Wunderground v.1.15,2013-02-21 23:34:00,
2013-02-21 15:40:00,52.7,36.0,30.14,WNW,291,10.0,16.0,53,0.00,,,0.00,411,Wunderground v.1.15,2013-02-21 23:40:00,
2013-02-21 15:46:00,52.5,35.8,30.14,West,275,11.0,12.0,53,0.00,,,0.00,392,Wunderground v.1.15,2013-02-21 23:46:00,
2013-02-21 15:51:00,52.5,36.3,30.13,WNW,294,10.0,10.0,54,0.00,,,0.00,383,Wunderground v.1.15,2013-02-21 23:51:00,
2013-02-21 15:57:00,52.3,35.7,30.13,WSW,252,9.0,13.0,53,0.00,,,0.00,353,Wunderground v.1.15,2013-02-21 23:57:00,
2013-02-21 16:02:00,52.3,35.7,30.13,WNW,297,9.0,13.0,53,0.00,,,0.00,338,Wunderground v.1.15,2013-02-22 00:02:00,
2013-02-21 16:08:00,52.3,36.1,30.13,WSW,256,7.0,13.0,54,0.00,,,0.00,330,Wunderground v.1.15,2013-02-22 00:08:00,
2013-02-21 16:13:00,52.4,36.2,30.13,WSW,244,6.0,8.0,54,0.00,,,0.00,295,Wunderground v.1.15,2013-02-22 00:13:00,
2013-02-21 16:19:00,52.3,35.2,30.13,West,265,8.0,11.0,52,0.00,,,0.00,276,Wunderground v.1.15,2013-02-22 00:19:00,
2013-02-21 16:24:00,52.2,36.0,30.13,West,281,8.0,11.0,54,0.00,,,0.00,258,Wunderground v.1.15,2013-02-22 00:24:00,
2013-02-21 16:30:00,52.1,36.4,30.13,WNW,290,7.0,8.0,55,0.00,,,0.00,237,Wunderground v.1.15,2013-02-22 00:30:00,
2013-02-21 16:36:00,51.9,36.7,30.14,WNW,286,7.0,10.0,56,0.00,,,0.00,218,Wunderground v.1.15,2013-02-22 00:36:00,
2013-02-21 16:41:00,51.8,37.5,30.14,WNW,303,7.0,7.0,58,0.00,,,0.00,206,Wunderground v.1.15,2013-02-22 00:41:00,
2013-02-21 16:47:00,51.7,37.4,30.14,WNW,284,6.0,8.0,58,0.00,,,0.00,185,Wunderground v.1.15,2013-02-22 00:47:00,
2013-02-21 16:52:00,51.6,38.2,30.14,WNW,290,6.0,6.0,60,0.00,,,0.00,172,Wunderground v.1.15,2013-02-22 00:52:00,
2013-02-21 16:57:00,51.6,38.2,30.14,WNW,292,4.0,6.0,60,0.00,,,0.00,167,Wunderground v.1.15,2013-02-22 00:57:00,
2013-02-21 17:03:00,51.6,38.2,30.14,WNW,291,1.0,2.0,60,0.00,,,0.00,90,Wunderground v.1.15,2013-02-22 01:03:00,
2013-02-21 17:08:00,51.6,38.6,30.14,West,271,0.0,3.0,61,0.00,,,0.00,79,Wunderground v.1.15,2013-02-22 01:08:00,
2013-02-21 17:14:00,51.5,38.5,30.14,SW,220,2.0,4.0,61,0.00,,,0.00,46,Wunderground v.1.15,2013-02-22 01:14:00,
2013-02-21 17:21:00,51.3,38.7,30.15,SW,223,3.0,3.0,62,0.00,,,0.00,53,Wunderground v.1.15,2013-02-22 01:21:00,
2013-02-21 17:26:00,51.2,39.0,30.15,SW,225,1.0,7.0,63,0.00,,,0.00,44,Wunderground v.1.15,2013-02-22 01:26:00,
2013-02-21 17:31:00,51.1,39.3,30.15,SW,216,2.0,2.0,64,0.00,,,0.00,26,Wunderground v.1.15,2013-02-22 01:31:00,
2013-02-21 17:37:00,50.8,39.1,30.15,SW,221,3.0,6.0,64,0.00,,,0.00,21,Wunderground v.1.15,2013-02-22 01:37:00,
2013-02-21 17:42:00,50.7,39.0,30.15,SW,223,2.0,2.0,64,0.00,,,0.00,12,Wunderground v.1.15,2013-02-22 01:42:00,
2013-02-21 17:48:00,50.4,39.1,30.15,SW,223,1.0,2.0,65,0.00,,,0.00,11,Wunderground v.1.15,2013-02-22 01:48:00,
2013-02-21 17:53:00,50.2,39.3,30.15,SW,219,0.0,0.0,66,0.00,,,0.00,7,Wunderground v.1.15,2013-02-22 01:53:00,
2013-02-21 17:59:00,49.9,39.0,30.15,South,190,0.0,0.0,66,0.00,,,0.00,0,Wunderground v.1.15,2013-02-22 01:59:00,
2013-02-21 18:04:00,49.7,39.2,30.15,South,182,0.0,0.0,67,0.00,,,0.00,0,Wunderground v.1.15,2013-02-22 02:04:00,
2013-02-21 18:11:00,49.3,39.2,30.15,South,181,0.0,0.0,68,0.00,,,0.00,0,Wunderground v.1.15,2013-02-22 02:11:00,
2013-02-21 18:16:00,49.0,38.9,30.15,SSE,163,0.0,0.0,68,0.00,,,0.00,0,Wunderground v.1.15,2013-02-22 02:16:00,
2013-02-21 18:21:00,48.7,39.0,30.15,SSE,153,0.0,0.0,69,0.00,,,0.00,0,Wunderground v.1.15,2013-02-22 02:21:00,
2013-02-21 18:27:00,48.4,39.1,30.15,SSE,153,0.0,0.0,70,0.00,,,0.00,0,Wunderground v.1.15,2013-02-22 02:27:00,
2013-02-21 18:33:00,48.2,39.6,30.15,SSE,153,0.0,0.0,72,0.00,,,0.00,0,Wunderground v.1.15,2013-02-22 02:33:00,
2013-02-21 18:39:00,47.8,39.6,30.15,SSE,153,0.0,0.0,73,0.00,,,0.00,0,Wunderground v.1.15,2013-02-22 02:39:00,
2013-02-21 18:45:00,47.5,39.6,30.16,SW,220,0.0,0.0,74,0.00,,,0.00,0,Wunderground v.1.15,2013-02-22 02:45:00,
2013-02-21 18:50:00,47.3,39.8,30.16,SW,220,1.0,1.0,75,0.00,,,0.00,0,Wunderground v.1.15,2013-02-22 02:50:00,
2013-02-21 18:56:00,47.2,39.7,30.16,SW,220,0.0,1.0,75,0.00,,,0.00,0,Wunderground v.1.15,2013-02-22 02:56:00,
2013-02-21 19:01:00,47.0,39.5,30.16,SW,220,0.0,0.0,75,0.00,,,0.00,0,Wunderground v.1.15,2013-02-22 03:01:00,
2013-02-21 19:06:00,46.9,39.7,30.16,SW,220,0.0,0.0,76,0.00,,,0.00,0,Wunderground v.1.15,2013-02-22 03:06:00,
2013-02-21 19:12:00,46.7,40.2,30.17,SE,146,1.0,5.0,78,0.00,,,0.00,0,Wunderground v.1.15,2013-02-22 03:12:00,
2013-02-21 19:18:00,46.3,40.5,30.16,SE,140,4.0,7.0,80,0.00,,,0.00,0,Wunderground v.1.15,2013-02-22 03:18:00,
2013-02-21 19:23:00,46.1,40.6,30.17,SE,128,6.0,6.0,81,0.00,,,0.00,0,Wunderground v.1.15,2013-02-22 03:23:00,
2013-02-21 19:29:00,45.9,40.4,30.17,SE,127,5.0,6.0,81,0.00,,,0.00,0,Wunderground v.1.15,2013-02-22 03:29:00,
2013-02-21 19:34:00,45.8,40.3,30.17,SE,128,4.0,5.0,81,0.00,,,0.00,0,Wunderground v.1.15,2013-02-22 03:34:00,
2013-02-21 19:39:00,45.8,40.6,30.17,SE,132,4.0,5.0,82,0.00,,,0.00,0,Wunderground v.1.15,2013-02-22 03:39:00,
2013-02-21 19:45:00,45.8,40.6,30.17,SE,132,5.0,5.0,82,0.00,,,0.00,0,Wunderground v.1.15,2013-02-22 03:45:00,
2013-02-21 19:50:00,45.8,40.6,30.17,SE,126,4.0,5.0,82,0.00,,,0.00,0,Wunderground v.1.15,2013-02-22 03:50:00,
2013-02-21 19:56:00,46.0,39.9,30.17,SE,126,3.0,4.0,79,0.00,,,0.00,0,Wunderground v.1.15,2013-02-22 03:56:00,
2013-02-21 20:01:00,46.4,38.9,30.16,SE,126,1.0,1.0,75,0.00,,,0.00,0,Wunderground v.1.15,2013-02-22 04:01:00,
2013-02-21 20:07:00,46.7,38.5,30.16,SE,126,0.0,1.0,73,0.00,,,0.00,0,Wunderground v.1.15,2013-02-22 04:07:00,
2013-02-21 20:12:00,47.0,38.1,30.16,SE,126,0.0,0.0,71,0.00,,,0.00,0,Wunderground v.1.15,2013-02-22 04:12:00,
2013-02-21 20:18:00,47.6,37.9,30.16,SE,126,0.0,0.0,69,0.00,,,0.00,0,Wunderground v.1.15,2013-02-22 04:18:00,
2013-02-21 20:23:00,47.9,37.8,30.16,SE,126,0.0,0.0,68,0.00,,,0.00,0,Wunderground v.1.15,2013-02-22 04:23:00,
2013-02-21 20:29:00,48.1,36.9,30.16,SE,126,0.0,0.0,65,0.00,,,0.00,0,Wunderground v.1.15,2013-02-22 04:29:00,
2013-02-21 20:34:00,48.4,36.8,30.16,SE,126,0.0,0.0,64,0.00,,,0.00,0,Wunderground v.1.15,2013-02-22 04:34:00,
2013-02-21 20:40:00,48.5,35.7,30.16,SE,126,0.0,0.0,61,0.00,,,0.00,0,Wunderground v.1.15,2013-02-22 04:40:00,
2013-02-21 20:46:00,48.6,35.3,30.16,SE,126,0.0,0.0,60,0.00,,,0.00,0,Wunderground v.1.15,2013-02-22 04:46:00,
2013-02-21 20:52:00,48.7,35.0,30.16,SE,126,0.0,0.0,59,0.00,,,0.00,0,Wunderground v.1.15,2013-02-22 04:52:00,
2013-02-21 20:58:00,48.8,34.7,30.16,SE,126,0.0,0.0,58,0.00,,,0.00,0,Wunderground v.1.15,2013-02-22 04:58:00,
2013-02-21 21:00:00,48.8,35.1,30.17,SE,126,0.0,0.0,59,0.00,,,0.00,0,Wunderground v.1.15,2013-02-22 05:00:00,
2013-02-21 21:01:00,48.8,35.1,30.17,SE,126,0.0,0.0,59,0.00,,,0.00,0,Wunderground v.1.15,2013-02-22 05:01:00,
2013-02-21 21:02:00,48.8,35.1,30.17,SE,126,0.0,0.0,59,0.00,,,0.00,0,Wunderground v.1.15,2013-02-22 05:02:00,
2013-02-21 21:04:00,48.8,35.1,30.17,SE,126,0.0,0.0,59,0.00,,,0.00,0,Wunderground v.1.15,2013-02-22 05:04:00,
2013-02-21 21:09:00,48.9,35.6,30.17,SE,126,0.0,0.0,60,0.00,,,0.00,0,Wunderground v.1.15,2013-02-22 05:09:00,
2013-02-21 21:14:00,49.0,35.7,30.17,SE,126,0.0,0.0,60,0.00,,,0.00,0,Wunderground v.1.15,2013-02-22 05:14:00,
2013-02-21 21:20:00,49.0,35.7,30.18,SE,126,0.0,0.0,60,0.00,,,0.00,0,Wunderground v.1.15,2013-02-22 05:20:00,
2013-02-21 21:26:00,48.8,35.9,30.18,SE,126,0.0,0.0,61,0.00,,,0.00,0,Wunderground v.1.15,2013-02-22 05:26:00,
2013-02-21 21:32:00,48.6,36.6,30.18,SE,126,0.0,0.0,63,0.00,,,0.00,0,Wunderground v.1.15,2013-02-22 05:32:00,
2013-02-21 21:38:00,48.0,37.6,30.18,SE,132,2.0,6.0,67,0.00,,,0.00,0,Wunderground v.1.15,2013-02-22 05:38:00,
2013-02-21 21:43:00,47.6,36.4,30.18,SE,132,4.0,4.0,65,0.00,,,0.00,0,Wunderground v.1.15,2013-02-22 05:43:00,
2013-02-21 21:49:00,47.6,36.0,30.18,SE,132,2.0,4.0,64,0.00,,,0.00,0,Wunderground v.1.15,2013-02-22 05:49:00,
2013-02-21 21:55:00,47.7,35.7,30.19,SE,132,0.0,1.0,63,0.00,,,0.00,0,Wunderground v.1.15,2013-02-22 05:55:00,
2013-02-21 22:00:00,47.8,35.4,30.19,SE,132,0.0,0.0,62,0.00,,,0.00,0,Wunderground v.1.15,2013-02-22 06:00:00,
2013-02-21 22:06:00,48.1,35.7,30.19,SE,132,0.0,0.0,62,0.00,,,0.00,0,Wunderground v.1.15,2013-02-22 06:06:00,
2013-02-21 22:11:00,48.4,35.1,30.19,SE,132,0.0,0.0,60,0.00,,,0.00,0,Wunderground v.1.15,2013-02-22 06:11:00,
2013-02-21 22:17:00,48.6,34.9,30.19,SE,132,0.0,0.0,59,0.00,,,0.00,0,Wunderground v.1.15,2013-02-22 06:17:00,
2013-02-21 22:22:00,48.7,34.6,30.19,SE,132,0.0,0.0,58,0.00,,,0.00,0,Wunderground v.1.15,2013-02-22 06:22:00,
2013-02-21 22:28:00,48.8,34.7,30.19,SE,132,0.0,0.0,58,0.00,,,0.00,0,Wunderground v.1.15,2013-02-22 06:28:00,
2013-02-21 22:33:00,48.9,34.8,30.19,SE,132,0.0,0.0,58,0.00,,,0.00,0,Wunderground v.1.15,2013-02-22 06:33:00,
2013-02-21 22:39:00,48.9,34.3,30.19,SE,132,0.0,0.0,57,0.00,,,0.00,0,Wunderground v.1.15,2013-02-22 06:39:00,
2013-02-21 22:44:00,48.9,34.3,30.19,SE,132,0.0,0.0,57,0.00,,,0.00,0,Wunderground v.1.15,2013-02-22 06:44:00,
2013-02-21 22:50:00,48.8,35.5,30.19,SE,132,0.0,0.0,60,0.00,,,0.00,0,Wunderground v.1.15,2013-02-22 06:50:00,
2013-02-21 22:56:00,48.7,35.8,30.19,SE,132,0.0,0.0,61,0.00,,,0.00,0,Wunderground v.1.15,2013-02-22 06:56:00,
2013-02-21 23:02:00,48.5,35.7,30.19,SE,132,0.0,0.0,61,0.00,,,0.00,0,Wunderground v.1.15,2013-02-22 07:02:00,
2013-02-21 23:07:00,48.5,36.1,30.19,SE,132,0.0,0.0,62,0.00,,,0.00,0,Wunderground v.1.15,2013-02-22 07:07:00,
2013-02-21 23:12:00,48.4,36.0,30.19,SE,132,0.0,0.0,62,0.00,,,0.00,0,Wunderground v.1.15,2013-02-22 07:12:00,
2013-02-21 23:18:00,48.3,35.9,30.19,SE,132,0.0,0.0,62,0.00,,,0.00,0,Wunderground v.1.15,2013-02-22 07:18:00,
2013-02-21 23:23:00,48.1,35.3,30.19,SE,132,1.0,6.0,61,0.00,,,0.00,0,Wunderground v.1.15,2013-02-22 07:23:00,
2013-02-21 23:29:00,47.7,35.3,30.19,SE,139,4.0,6.0,62,0.00,,,0.00,0,Wunderground v.1.15,2013-02-22 07:29:00,
2013-02-21 23:34:00,47.2,36.8,30.19,SE,142,5.0,6.0,67,0.00,,,0.00,0,Wunderground v.1.15,2013-02-22 07:34:00,
2013-02-21 23:39:00,46.7,37.4,30.19,SSE,148,6.0,6.0,70,0.00,,,0.00,0,Wunderground v.1.15,2013-02-22 07:39:00,
2013-02-21 23:45:00,46.2,38.0,30.19,SSE,148,6.0,7.0,73,0.00,,,0.00,0,Wunderground v.1.15,2013-02-22 07:45:00,
2013-02-21 23:50:00,45.8,38.3,30.19,SE,141,6.0,8.0,75,0.00,,,0.00,0,Wunderground v.1.15,2013-02-22 07:50:00,
2013-02-21 23:56:00,45.5,38.7,30.19,SSE,155,6.0,7.0,77,0.00,,,0.00,0,Wunderground v.1.15,2013-02-22 07:56:00,